Location: Unspecified
(0.0000°N, 0.0000°E)
Time: 00:44:54
(UTC+00:00)

A-11 Canister half - Pass Details

Date: 14 February 2023
Orbit: 1526 x 1682 km, 47.3° (Epoch: 29 March)

Event Time Altitude Azimuth Distance (km) Brightness Sun altitude
Rises 13:30:06 0° 288° (WNW) 4,799 11.8 67.1°
Reaches altitude 10° 13:34:10 10° 273° (W) 3,842 11.5 66.3°
Maximum altitude 13:41:11 22° 227° (SW) 3,043 11.4 64.8°
Drops below altitude 10° 13:48:24 10° 180° (S) 3,923 11.5 63.3°
Sets 13:52:40 0° 165° (SSE) 4,926 11.7 62.4°
